Flag for USA

Past Weather in Binghamton, New York, USA — Yesterday and Last 2 Weeks

Now
74 °F

Passing clouds.


Feels Like: 77 °F
Forecast: 89 / 68 °F
Wind: 6 mph from West

Location: Binghamton Regional Airport

Current Time: Aug 9, 2020 at 11:09:39 pm

Latest Report: Aug 9, 2020 at 9:53 pm


Visibility: 10 mi

Pressure: 30.07 "Hg

Humidity: 62%

Dew Point: 60 °F

Location of BinghamtonLocation

Past Weather in Binghamton — Graph

°F

Binghamton Temperature Yesterday

Maximum temperature yesterday: 80 °F (at 4:53 pm)
Minimum temperature yesterday: 61 °F (at 4:27 am)
Average temperature yesterday: 68 °F

High & Low Weather Summary for the Past Weeks

 TemperatureHumidityPressure
High93 °F (Jul 27, 3:53 pm)100% (Aug 4, 9:53 am)30.21 "Hg (Aug 4, 9:53 am)
Low56 °F (Aug 6, 2:53 am)34% (Aug 1, 2:53 pm)29.70 "Hg (Aug 4, 3:53 pm)
Average70 °F74%29.98 "Hg
* Reported Jul 25 8:53 pm — Aug 9 8:53 pm, Binghamton. Weather by CustomWeather, © 2020

Note: Actual official high and low records may vary slightly from our data, if they occured in-between our weather recording intervals... More about our weather records

Binghamton Weather History for the Previous 24 Hours

Scroll right to see more
 ConditionsComfort  
Time TempWeatherWind HumidityBarometerVisibility
8:53 pm
Sun, Aug 9
75 °FPassing clouds.5 mph58%30.05 "Hg10 mi
7:53 pm77 °FPartly sunny.6 mph56%30.04 "Hg10 mi
6:53 pm80 °FPassing clouds.7 mph49%30.03 "Hg10 mi
5:53 pm81 °FSunny.9 mph45%30.04 "Hg10 mi
4:53 pm81 °FSunny.10 mph45%30.05 "Hg10 mi
3:53 pm81 °FSunny.5 mph44%30.06 "Hg10 mi
2:53 pm80 °FSunny.8 mph49%30.08 "Hg10 mi
1:53 pm79 °FSunny.9 mph50%30.09 "Hg10 mi
12:53 pm77 °FSunny.7 mph54%30.10 "Hg10 mi
11:53 am75 °FPassing clouds.7 mph62%30.12 "Hg10 mi
11:24 am74 °FPartly sunny.7 mph64%30.16 "Hg10 mi
10:53 am74 °FPassing clouds.6 mph69%30.13 "Hg10 mi
9:53 am69 °FSunny.No wind84%30.14 "Hg10 mi
9:23 am65 °FScattered clouds.3 mph97%30.17 "Hg10 mi
9:11 am64 °FFog.No wind97%30.17 "Hg3 mi
8:35 am64 °FFog.3 mph97%30.17 "Hg0 mi
8:18 am64 °FFog.No wind97%30.16 "Hg1 mi
7:58 am63 °FFog.3 mph100%30.16 "Hg1 mi
7:33 am63 °FFog.3 mph97%30.16 "Hg1 mi
7:14 am63 °FFog.No wind97%30.16 "Hg1 mi
7:01 am62 °FFog.No wind100%30.15 "Hg1 mi
6:34 am62 °FFog.5 mph96%30.15 "Hg2 mi
6:20 am62 °FFog.5 mph96%30.15 "Hg1 mi
5:53 am62 °FFog.No wind96%30.12 "Hg4 mi
4:53 am63 °FPassing clouds.No wind93%30.12 "Hg10 mi
3:53 am65 °FPassing clouds.No wind87%30.13 "Hg10 mi
2:53 am65 °FClear.No wind87%30.12 "Hg10 mi
1:53 am66 °FClear.No wind87%30.13 "Hg10 mi
12:53 am66 °FClear.No wind84%30.13 "Hg10 mi
11:53 pm
Sat, Aug 8
68 °FClear.6 mph82%30.12 "Hg10 mi
Weather by CustomWeather, © 2020

See weather overview